Probability
3 3 3 6 3 3 13 13 16 23 19 16 16 13 10 10 10 6 6 3 3 3 3 6 6 3 3 3 3 3 3 3 3 3 3 3 3 3 3 3 3 3 3
3 3 0 3 13 13 16 23 23 19 19 13 16 10 6 10 10 10 10 6 10 6 6 3 6 6 3 3 3 3 3 3 3 3 3 3 3 0 3 3 3 3 3
3 0 3 10 13 13 13 13 19 19 19 16 10 10 3 3 3 6 3 3 10 10 6 6 0 3 3 3 3 3 3 3 3 3 3 3 3 0 0 0 3 3 0
3 0 3 6 10 13 13 13 16 16 19 10 10 10 6 3 3 3 3 3 3 3 3 3 3 3 3 3 3 3 3 3 3 3 3 3 0 0 3 0 0 0 0
3 0 0 6 6 13 13 16 16 16 13 10 10 6 6 6 3 3 3 0 3 3 3 3 6 6 3 3 3 3 3 3 3 3 3 3 3 3 3 3 0 0 0
0 0 3 10 13 13 13 16 16 13 13 13 6 6 6 6 3 3 3 0 0 0 3 3 6 6 3 3 3 3 3 3 3 3 3 3 3 3 3 3 0 0 0
3 3 6 13 13 16 16 16 16 13 13 13 6 6 6 3 3 0 0 0 0 0 3 3 6 6 3 3 3 3 3 3 3 3 3 3 3 3 3 3 0 0 0
6 3 10 13 13 16 16 16 16 13 13 6 3 0 0 0 3 3 0 0 0 0 3 3 3 6 6 6 3 3 0 3 3 3 3 3 3 3 3 0 0 0 0
10 6 10 13 16 16 16 16 13 13 10 10 3 0 0 0 0 0 0 0 0 0 3 3 3 3 3 3 3 0 0 0 3 3 3 3 3 3 0 0 0 0 0
10 10 10 10 13 13 16 13 10 6 10 10 6 3 3 0 0 0 0 0 0 0 3 3 3 3 0 0 0 0 0 0 3 3 3 3 3 3 3 0 0 0 0
13 10 13 13 13 10 6 6 6 6 6 6 3 0 0 0 0 0 0 0 0 0 0 0 3 0 0 0 0 0 0 0 0 0 0 0 0 3 0 0 0 0 0
10 16 13 10 10 3 6 6 6 6 3 3 0 0 0 0 0 0 0 0 0 0 0 0 0 0 0 0 0 0 0 0 0 0 0 0 0 0 0 0 0 0 0
10 16 10 10 6 3 6 6 6 6 3 3 3 0 0 0 0 0 0 0 0 0 0 0 0 0 0 0 0 0 0 0 0 0 0 0 0 0 0 0 0 0 0
6 10 6 6 6 6 6 6 6 3 3 3 3 0 0 0 0 0 0 0 0 0 0 0 0 0 0 0 0 0 0 0 0 0 0 0 0 0 0 0 0 0 0
10 3 6 6 6 6 6 6 3 3 3 3 3 0 0 0 0 0 0 0 0 0 0 0 0 0 0 0 0 0 0 0 0 0 0 0 0 0 0 0 0 0 0
10 6 6 6 6 3 6 6 3 3 3 3 3 3 0 0 0 0 0 0 0 0 0 0 0 0 0 0 0 0 0 0 0 0 0 0 0 0 0 0 0 0 0
13 3 3 3 3 3 3 0 3 3 3 3 3 3 0 0 0 0 0 0 0 0 0 0 0 0 0 0 0 0 0 0 0 0 0 0 0 0 0 0 0 0 0
10 6 3 3 3 3 3 0 3 3 3 3 3 3 3 3 0 0 0 0 0 0 0 0 0 0 0 0 0 0 0 0 0 0 0 0 0 0 0 0 0 0 0
6 6 3 3 3 3 3 0 0 3 3 3 3 3 3 3 0 0 0 0 0 0 0 0 0 0 0 0 0 0 0 0 0 0 0 0 0 0 0 0 0 0 0
6 6 6 3 3 3 3 0 0 0 0 0 0 0 0 0 0 0 0 0 0 0 0 0 0 0 0 0 0 0 0 0 0 0 0 0 0 0 0 0 0 0 0
3 3 3 3 3 3 3 0 0 0 0 0 0 0 0 0 0 0 0 0 0 0 0 0 0 0 0 0 0 0 0 0 0 0 0 0 0 0 0 0 0 0 0
3 3 3 3 3 3 3 0 0 0 0 0 0 0 0 0 0 0 0 0 0 0 0 0 0 0 0 0 0 0 0 0 0 0 0 0 0 0 0 0 0 0 0
3 6 3 3 3 3 0 0 0 0 0 0 0 0 0 0 0 0 0 0 0 0 0 0 0 0 0 0 0 0 0 0 0 0 0 0 0 0 0 0 0 0 0
3 6 3 3 3 3 3 3 3 3 0 0 0 0 0 0 0 0 0 0 0 0 0 0 0 0 0 0 0 0 0 0 0 0 0 0 0 0 0 0 0 0 0
3 3 6 6 3 3 3 3 3 3 0 0 3 0 0 0 0 0 0 0 0 0 0 0 0 0 0 0 0 0 0 0 0 0 0 0 0 0 0 0 0 0 0
3 3 3 0 3 3 3 3 3 3 3 0 3 3 3 0 0 0 0 0 0 0 0 0 0 0 0 0 0 0 0 0 0 0 0 0 0 0 0 0 0 0 0
Height
5854 5853 5852 5850 5849 5848 5847 5846 5845 5843 5842 5840 5839 5837 5836 5834 5832 5830 5828 5827 5825 5823 5822 5820 5819 5818 5817 5817 5816 5816 5815 5815 5815 5814 5814 5813 5813 5813 5813 5813 5814 5814 5814
5852 5850 5849 5848 5847 5846 5844 5843 5842 5840 5839 5838 5836 5834 5833 5831 5829 5827 5825 5823 5821 5820 5818 5816 5815 5814 5813 5812 5811 5811 5810 5810 5809 5809 5809 5808 5809 5808 5808 5808 5808 5808 5808
5850 5848 5847 5845 5844 5843 5842 5840 5839 5837 5836 5834 5833 5831 5829 5828 5826 5824 5822 5820 5818 5816 5814 5812 5811 5809 5808 5807 5807 5806 5805 5804 5804 5804 5804 5803 5803 5803 5803 5802 5802 5802 5802
5847 5846 5845 5844 5842 5841 5839 5837 5836 5834 5833 5831 5829 5827 5826 5824 5822 5820 5818 5816 5814 5812 5810 5808 5807 5805 5804 5802 5801 5800 5800 5799 5798 5798 5798 5798 5798 5797 5797 5797 5796 5796 5796
5845 5844 5842 5841 5840 5838 5836 5834 5832 5831 5829 5827 5825 5823 5822 5820 5818 5816 5813 5811 5809 5807 5805 5804 5802 5800 5799 5797 5796 5795 5793 5793 5792 5792 5792 5792 5792 5791 5791 5791 5790 5789 5789
5842 5841 5840 5838 5837 5835 5833 5831 5829 5827 5825 5823 5821 5819 5817 5815 5813 5811 5809 5807 5805 5803 5801 5799 5797 5795 5794 5792 5791 5789 5788 5787 5786 5786 5786 5786 5785 5785 5785 5785 5784 5783 5782
5838 5838 5837 5835 5833 5832 5830 5828 5826 5824 5821 5819 5817 5814 5813 5811 5808 5806 5804 5802 5799 5797 5796 5794 5792 5790 5788 5787 5785 5784 5783 5782 5781 5781 5780 5780 5779 5779 5779 5779 5778 5777 5776
5835 5834 5833 5832 5830 5828 5826 5825 5823 5820 5818 5815 5813 5810 5808 5806 5804 5801 5799 5797 5794 5792 5790 5789 5786 5785 5783 5782 5780 5779 5778 5777 5776 5776 5775 5774 5774 5773 5773 5772 5772 5771 5770
5831 5829 5829 5828 5826 5824 5823 5821 5819 5817 5814 5811 5809 5806 5803 5801 5799 5796 5794 5791 5789 5787 5785 5783 5781 5780 5778 5777 5775 5774 5773 5772 5771 5771 5770 5769 5768 5767 5767 5766 5766 5765 5764
5826 5825 5825 5824 5822 5820 5819 5817 5816 5813 5811 5808 5805 5802 5799 5796 5794 5791 5788 5786 5784 5781 5779 5777 5776 5774 5773 5772 5770 5769 5768 5767 5766 5765 5764 5764 5763 5762 5761 5761 5760 5758 5757
5823 5822 5821 5819 5817 5816 5814 5813 5811 5809 5806 5804 5800 5797 5794 5791 5788 5786 5783 5781 5778 5776 5774 5771 5770 5769 5768 5766 5765 5764 5763 5762 5761 5760 5760 5759 5758 5757 5756 5755 5754 5752 5751
5819 5818 5817 5815 5814 5812 5811 5809 5807 5804 5802 5799 5796 5793 5790 5787 5784 5781 5779 5776 5773 5771 5769 5766 5765 5763 5762 5761 5760 5759 5758 5757 5757 5756 5755 5754 5753 5752 5750 5749 5748 5746 5745
5815 5814 5812 5811 5810 5808 5806 5805 5803 5800 5798 5795 5792 5789 5786 5783 5780 5777 5774 5771 5769 5766 5764 5762 5760 5759 5757 5756 5755 5754 5753 5753 5752 5751 5750 5749 5748 5746 5745 5743 5742 5740 5738
5811 5810 5809 5807 5806 5804 5802 5800 5798 5796 5793 5791 5788 5785 5782 5779 5776 5773 5770 5767 5765 5762 5761 5759 5757 5755 5753 5752 5751 5750 5749 5748 5747 5747 5746 5744 5742 5741 5739 5737 5736 5734 5732
5807 5806 5804 5803 5801 5799 5798 5796 5794 5792 5789 5786 5783 5780 5778 5775 5772 5769 5766 5764 5761 5759 5757 5755 5753 5751 5749 5748 5746 5746 5744 5744 5743 5742 5740 5739 5737 5735 5733 5731 5730 5728 5725
5802 5801 5800 5798 5797 5795 5793 5792 5790 5787 5785 5782 5779 5776 5773 5771 5768 5765 5763 5760 5757 5755 5752 5750 5749 5747 5745 5744 5742 5741 5740 5739 5738 5737 5735 5733 5731 5729 5727 5725 5723 5721 5719
5798 5796 5795 5794 5792 5791 5789 5787 5785 5782 5780 5777 5775 5772 5769 5767 5764 5761 5759 5756 5753 5751 5749 5746 5745 5743 5741 5740 5738 5737 5736 5734 5733 5731 5729 5727 5725 5723 5721 5718 5716 5714 5711
5793 5792 5791 5789 5788 5786 5784 5782 5780 5778 5775 5773 5770 5768 5765 5763 5760 5757 5754 5752 5749 5747 5745 5743 5741 5739 5737 5736 5734 5733 5731 5730 5728 5726 5724 5722 5719 5717 5714 5712 5710 5707 5705
5787 5786 5786 5784 5782 5781 5779 5777 5775 5773 5770 5768 5765 5763 5760 5758 5756 5753 5750 5748 5745 5743 5741 5738 5737 5735 5733 5731 5729 5728 5726 5725 5723 5721 5719 5716 5714 5711 5708 5706 5703 5701 5698
5782 5781 5780 5778 5777 5776 5774 5772 5770 5768 5766 5763 5760 5758 5756 5754 5751 5749 5746 5744 5741 5739 5737 5735 5733 5731 5729 5727 5725 5723 5721 5720 5718 5716 5713 5711 5708 5705 5702 5699 5696 5694 5692
5776 5775 5774 5772 5771 5770 5769 5767 5765 5763 5761 5759 5756 5753 5751 5749 5747 5744 5742 5739 5737 5735 5733 5731 5729 5727 5724 5722 5720 5718 5716 5715 5713 5710 5708 5705 5702 5699 5696 5693 5690 5688 5685
5770 5769 5768 5767 5766 5765 5763 5761 5760 5758 5756 5754 5751 5749 5746 5744 5741 5739 5737 5735 5732 5731 5729 5727 5725 5722 5720 5718 5715 5714 5711 5709 5707 5705 5702 5699 5696 5692 5689 5686 5683 5681 5678
5764 5763 5762 5761 5760 5759 5757 5756 5755 5753 5751 5749 5747 5744 5742 5739 5737 5735 5733 5731 5729 5727 5725 5723 5720 5718 5716 5713 5711 5709 5707 5704 5702 5699 5696 5693 5690 5686 5683 5680 5676 5674 5671
5758 5757 5756 5755 5754 5753 5752 5750 5749 5747 5746 5744 5742 5740 5737 5735 5733 5731 5729 5727 5725 5723 5721 5719 5716 5714 5712 5709 5707 5705 5703 5700 5697 5694 5691 5688 5684 5681 5677 5673 5670 5667 5664
5752 5751 5750 5749 5748 5747 5746 5745 5743 5742 5740 5739 5737 5735 5733 5731 5729 5727 5725 5723 5721 5719 5717 5715 5712 5710 5708 5706 5703 5701 5698 5695 5692 5689 5686 5682 5679 5675 5671 5667 5664 5661 5658
5745 5745 5744 5743 5742 5741 5740 5739 5737 5736 5735 5733 5732 5730 5728 5727 5725 5723 5721 5719 5717 5715 5713 5710 5708 5706 5704 5701 5699 5696 5693 5690 5688 5684 5681 5677 5673 5669 5666 5662 5658 5655 5652
Wind_Speed
9 10 11 10 11 11 12 12 12 12 12 13 13 13 13 13 13 13 13 13 13 13 13 13 14 14 15 16 16 17 17 17 17 18 18 18 19 19 20 20 21 22 22
9 9 9 10 11 11 11 12 12 13 12 12 13 13 13 13 13 13 13 13 13 13 14 14 14 15 15 15 16 16 16 17 17 18 18 18 19 19 20 21 22 23 24
10 10 10 9 10 10 11 11 12 12 12 12 13 13 14 14 14 14 14 14 14 14 14 14 14 15 15 16 16 16 17 18 18 18 18 19 19 20 21 21 22 23 24
10 10 10 10 10 10 11 12 12 13 13 13 14 14 15 15 15 15 15 15 15 15 15 15 15 15 15 16 16 16 17 18 18 19 19 19 20 20 21 22 23 24 25
10 10 11 11 11 11 12 12 12 14 14 14 14 15 16 16 16 16 16 16 16 16 16 16 16 16 16 16 16 16 16 17 17 18 19 19 19 20 21 22 23 23 24
10 11 12 13 13 13 12 12 13 14 14 15 15 16 16 17 16 16 17 17 17 17 17 16 16 16 16 16 16 16 16 17 17 17 18 18 19 19 20 21 21 22 23
12 12 13 14 14 14 13 13 14 14 15 15 16 16 17 17 17 18 17 17 17 17 17 17 17 17 16 16 16 16 16 16 16 16 16 17 17 18 19 19 20 21 22
12 12 14 14 14 14 14 14 14 14 15 15 16 16 17 18 18 18 17 17 17 18 17 17 17 16 16 15 15 16 16 15 15 15 16 16 17 18 18 19 19 19 20
12 13 14 14 14 14 14 14 14 14 15 16 16 17 17 18 18 18 18 18 19 18 18 18 17 16 16 16 15 16 15 15 14 15 15 16 17 17 18 18 18 20 21
13 14 14 15 14 14 13 14 14 15 16 16 17 17 17 17 18 18 19 19 18 18 18 17 17 17 17 17 16 16 15 15 15 15 15 16 17 18 19 19 20 21 22
14 15 15 15 14 13 13 14 16 16 16 17 17 18 18 18 18 18 18 18 18 18 17 17 17 17 17 17 16 16 15 15 15 15 15 16 16 18 18 19 20 21 22
15 15 14 14 13 13 14 15 16 17 18 18 18 17 17 17 17 18 17 17 17 17 16 16 16 16 16 16 16 16 15 15 15 15 16 17 17 18 18 19 20 21 21
16 16 15 15 15 15 14 15 16 17 18 18 17 17 17 17 17 16 16 16 16 15 15 15 15 15 15 14 14 14 14 14 15 16 17 18 18 19 20 20 21 21 22
16 16 16 16 15 15 15 15 16 17 17 17 17 17 17 17 16 16 16 16 16 15 15 15 15 15 14 14 14 14 14 15 15 16 17 18 19 20 21 21 22 22 23
16 16 16 17 16 15 16 16 16 16 16 16 17 17 17 17 16 16 16 16 16 16 16 15 15 15 14 14 14 14 15 15 16 17 19 20 20 21 22 23 23 24 24
17 17 17 17 17 16 16 15 16 16 16 17 17 17 17 16 16 16 17 16 16 16 16 16 16 15 15 15 15 15 15 16 17 19 20 21 21 22 22 23 24 24 24
17 17 17 17 17 17 16 16 16 17 17 17 17 16 16 16 16 17 16 16 16 16 16 16 16 16 16 15 16 16 17 17 18 19 20 21 22 22 23 24 24 24 24
18 17 17 17 17 17 16 17 17 17 18 18 17 17 16 16 16 17 17 16 16 16 16 16 16 16 16 16 17 17 17 18 18 19 20 21 22 22 23 23 24 24 24
18 18 18 18 18 17 17 17 17 18 19 18 17 17 16 16 17 17 17 17 17 17 17 16 16 16 16 17 17 17 18 18 19 20 20 21 22 22 23 23 23 23 24
19 19 19 19 18 18 17 18 18 18 19 18 17 16 16 16 17 17 18 18 17 16 16 15 15 16 16 16 16 17 17 18 19 19 20 21 22 22 23 23 23 23 23
19 19 18 18 18 17 17 18 18 18 18 17 17 17 17 17 17 18 18 18 17 16 16 16 16 16 16 16 16 16 17 18 19 20 20 21 22 22 22 23 22 22 23
19 19 19 18 17 17 18 18 18 18 18 18 18 18 18 18 17 17 17 16 16 16 16 16 16 16 17 17 16 17 18 18 19 19 20 21 22 23 23 23 23 23 23
19 19 19 18 18 18 18 18 18 18 18 18 18 18 17 17 17 17 16 15 15 15 15 16 16 16 17 17 16 16 17 18 18 19 19 20 21 22 23 23 23 23 23
19 19 19 19 18 19 19 19 18 17 17 17 17 16 16 16 17 16 16 16 15 15 16 16 17 17 17 16 16 16 17 18 19 20 20 21 22 23 23 23 23 23 22
19 19 19 19 19 18 18 18 18 17 17 17 17 17 17 17 18 17 17 17 16 16 16 16 17 17 16 16 16 17 18 19 20 20 21 21 22 23 23 22 21 21 21
19 19 19 19 19 19 19 19 19 18 19 19 18 18 18 18 18 18 17 16 16 16 16 16 16 16 16 16 16 17 17 18 19 19 20 21 21 22 22 21 21 20 21
Wind_Direction
315 314 313 308 310 313 313 310 306 302 302 302 305 306 308 309 310 306 304 301 299 299 294 284 285 284 279 276 277 276 272 271 272 271 269 266 264 263 262 262 261 260 259
318 321 311 305 308 312 310 307 304 300 299 300 303 305 305 305 305 304 303 301 301 300 299 291 288 286 284 280 279 278 274 272 272 270 269 267 265 264 264 265 263 261 262
317 319 319 314 312 311 311 311 309 303 301 302 304 307 308 306 305 304 303 304 305 302 301 298 292 285 284 283 282 280 275 273 272 270 268 265 265 266 266 265 264 263 263
313 321 323 317 315 314 314 314 311 306 303 303 303 306 306 303 302 303 303 304 303 300 298 296 294 290 287 284 282 281 277 274 272 269 268 267 267 267 268 267 267 266 265
310 316 315 315 314 313 315 316 313 308 305 305 306 307 305 303 301 301 303 304 303 301 298 295 295 295 293 290 285 283 281 277 273 271 269 269 269 268 268 268 269 269 268
302 309 310 312 313 312 311 313 315 312 308 307 306 307 305 304 304 303 304 304 304 302 300 299 298 296 294 290 288 285 281 280 276 274 273 272 271 270 268 267 267 269 269
294 299 302 308 311 309 309 311 313 314 310 307 306 306 304 303 303 302 302 302 303 301 301 300 302 299 294 291 290 289 286 285 281 278 277 275 273 271 270 269 268 269 270
289 295 300 303 303 303 303 307 311 313 311 308 307 304 302 302 302 302 301 299 299 299 300 299 300 298 295 293 293 291 288 285 283 281 280 276 274 274 273 273 273 272 275
288 294 299 299 297 296 298 302 307 310 312 312 312 310 306 303 303 302 300 298 298 297 297 296 296 295 294 294 293 291 290 286 283 283 280 280 280 279 278 278 278 277 278
295 298 297 298 295 293 298 302 305 310 312 313 313 311 310 306 303 302 300 300 299 298 297 297 297 295 294 294 293 289 287 287 285 284 283 283 282 280 278 279 280 280 280
293 300 297 298 297 295 297 300 306 311 314 315 314 313 310 308 306 305 304 303 300 300 301 298 296 295 294 293 290 288 287 288 287 286 285 287 287 285 283 283 282 282 282
298 298 298 296 298 296 295 298 303 308 312 315 315 315 313 309 308 306 305 305 305 303 302 301 300 296 294 293 291 288 287 288 287 288 289 289 289 289 288 288 288 288 287
299 298 298 297 298 298 297 299 303 306 310 314 315 316 316 313 312 312 313 312 311 309 307 306 304 301 296 293 292 289 287 286 287 288 290 291 291 290 290 291 291 291 289
294 296 299 298 298 299 300 303 306 308 311 313 313 315 317 318 316 315 315 314 313 311 308 307 304 302 301 295 292 291 287 286 286 288 291 294 294 292 290 291 291 291 291
288 292 295 296 296 297 299 301 306 308 310 312 313 314 315 316 316 315 314 312 312 310 307 305 303 301 300 296 293 290 288 287 288 290 292 294 295 295 292 291 290 290 290
289 291 294 294 294 296 298 300 303 306 309 310 312 312 313 314 314 314 313 311 310 310 307 303 301 300 299 297 293 291 290 288 290 294 295 296 295 295 294 293 291 290 290
288 291 292 293 292 296 297 302 304 307 308 310 310 311 312 314 314 313 312 309 309 310 308 305 301 299 298 297 295 293 291 291 294 297 298 299 299 299 298 297 295 293 293
286 289 289 290 291 294 297 301 303 307 308 308 308 309 310 311 313 315 313 309 306 308 308 306 303 299 296 295 294 294 295 297 298 299 300 301 301 301 300 298 295 295 295
285 285 285 287 291 293 296 300 303 304 306 305 306 307 307 308 310 312 311 307 306 305 305 304 303 300 298 294 292 293 295 297 299 300 301 302 302 302 301 300 297 295 295
281 284 286 287 289 291 295 300 301 302 304 303 304 306 306 306 308 309 310 307 306 306 305 304 305 305 303 299 296 294 295 297 300 301 302 303 304 303 303 302 298 297 297
278 280 283 286 287 290 294 298 301 301 302 304 305 303 303 305 306 308 310 309 305 305 306 306 305 305 306 304 301 299 299 300 302 302 303 305 305 305 303 303 300 300 299
275 278 281 283 285 288 292 295 297 299 299 300 304 304 304 306 306 307 309 308 306 305 305 305 304 305 307 306 305 304 304 304 305 305 306 307 308 308 306 304 301 300 300
275 278 279 281 284 287 289 293 295 295 296 299 302 303 304 304 307 309 309 308 308 308 308 308 307 307 309 308 306 306 307 307 307 306 307 309 310 310 308 305 302 301 300
274 275 279 280 282 285 288 290 293 293 296 298 300 301 302 304 307 307 307 307 307 309 310 308 309 309 309 310 309 308 310 311 310 310 310 310 311 310 310 309 307 305 303
274 275 278 279 279 281 283 285 287 290 293 294 297 297 299 302 304 306 307 307 306 309 311 311 311 310 308 308 310 311 312 312 313 313 313 313 315 314 313 312 311 310 309
273 274 275 277 279 281 282 283 285 286 289 292 292 294 298 301 302 304 304 304 305 308 310 311 311 310 310 310 311 312 313 314 316 317 318 318 319 318 317 316 313 313 312